TimeMDT,TemperatureF,Dew PointF,Humidity,Sea Level PressureIn,VisibilityMPH,Wind Direction,Wind SpeedMPH,Gust SpeedMPH,PrecipitationIn,Events,Conditions,WindDirDegrees,DateUTC
12:35 AM,51.8,42.8,71,30.41,10.0,North,6.9,-,N/A,,Clear,10,2013-06-28 06:35:00
12:55 AM,51.8,42.8,71,30.41,10.0,North,10.4,-,N/A,,Clear,360,2013-06-28 06:55:00
1:15 AM,51.8,42.8,71,30.41,10.0,North,6.9,-,N/A,,Clear,360,2013-06-28 07:15:00
1:35 AM,51.8,42.8,71,30.41,10.0,NNE,4.6,-,N/A,,Clear,20,2013-06-28 07:35:00
2:15 AM,51.8,42.8,71,30.41,10.0,North,6.9,-,N/A,,Clear,360,2013-06-28 08:15:00
2:35 AM,48.2,42.8,82,30.41,10.0,North,5.8,-,N/A,,Clear,360,2013-06-28 08:35:00
2:55 AM,50.0,42.8,76,30.41,10.0,Calm,Calm,-,N/A,,Clear,0,2013-06-28 08:55:00
3:15 AM,48.2,42.8,82,30.42,10.0,North,6.9,-,N/A,,Clear,10,2013-06-28 09:15:00
3:35 AM,46.4,42.8,87,30.42,10.0,NNW,6.9,-,N/A,,Clear,340,2013-06-28 09:35:00
3:55 AM,48.2,42.8,82,30.42,10.0,NNE,4.6,-,N/A,,Clear,20,2013-06-28 09:55:00
4:15 AM,48.2,42.8,82,30.42,10.0,North,4.6,-,N/A,,Clear,10,2013-06-28 10:15:00
4:35 AM,46.4,42.8,87,30.42,10.0,North,4.6,-,N/A,,Clear,350,2013-06-28 10:35:00
4:55 AM,46.4,42.8,87,30.42,10.0,North,3.5,-,N/A,,Clear,360,2013-06-28 10:55:00
5:16 AM,46.4,41.0,81,30.42,10.0,North,4.6,-,N/A,,Clear,360,2013-06-28 11:16:00
5:35 AM,46.4,41.0,81,30.43,10.0,North,6.9,-,N/A,,Clear,360,2013-06-28 11:35:00
5:55 AM,44.6,39.2,81,30.43,10.0,North,6.9,-,N/A,,Clear,350,2013-06-28 11:55:00
6:15 AM,44.6,41.0,87,30.44,10.0,North,5.8,-,N/A,,Clear,350,2013-06-28 12:15:00
6:35 AM,46.4,39.2,76,30.44,10.0,ENE,3.5,-,N/A,,Clear,70,2013-06-28 12:35:00
6:51 AM,48.2,42.8,82,30.44,10.0,North,8.1,-,N/A,,Clear,10,2013-06-28 12:51:00
7:56 AM,55.4,44.6,67,30.45,10.0,Calm,Calm,-,N/A,,Clear,0,2013-06-28 13:56:00
8:51 AM,62.6,44.6,52,30.45,10.0,Calm,Calm,-,N/A,,Clear,0,2013-06-28 14:51:00
10:50 AM,71.6,44.6,38,30.43,10.0,South,4.6,-,N/A,,Clear,170,2013-06-28 16:50:00
11:55 AM,78.8,44.6,30,30.42,10.0,SSE,3.5,-,N/A,,Clear,160,2013-06-28 17:55:00
12:51 PM,82.4,39.2,21,30.41,10.0,NNW,4.6,-,N/A,,Clear,330,2013-06-28 18:51:00
1:51 PM,84.2,35.6,18,30.39,10.0,SSW,5.8,-,N/A,,Clear,200,2013-06-28 19:51:00
2:55 PM,86.0,33.8,15,30.37,10.0,SW,9.2,-,N/A,,Clear,220,2013-06-28 20:55:00
3:53 PM,87.8,35.6,16,30.36,10.0,West,5.8,-,N/A,,Clear,260,2013-06-28 21:53:00
4:52 PM,87.8,35.6,16,30.35,10.0,West,8.1,-,N/A,,Clear,270,2013-06-28 22:52:00
5:51 PM,87.8,33.8,15,30.34,10.0,West,10.4,-,N/A,,Clear,260,2013-06-28 23:51:00
6:54 PM,87.8,30.2,13,30.33,10.0,West,6.9,-,N/A,,Clear,260,2013-06-29 00:54:00
7:55 PM,84.2,33.8,16,30.32,10.0,NW,4.6,-,N/A,,Clear,320,2013-06-29 01:55:00
8:51 PM,73.4,37.4,27,30.32,10.0,North,6.9,-,N/A,,Clear,350,2013-06-29 02:51:00
9:15 PM,66.2,35.6,32,30.33,10.0,NNW,6.9,-,N/A,,Clear,340,2013-06-29 03:15:00
9:35 PM,66.2,37.4,35,30.33,10.0,NE,5.8,-,N/A,,Clear,50,2013-06-29 03:35:00
9:55 PM,62.6,37.4,39,30.34,10.0,NE,3.5,-,N/A,,Clear,50,2013-06-29 03:55:00
10:15 PM,59.0,39.2,48,30.34,10.0,Calm,Calm,-,N/A,,Clear,0,2013-06-29 04:15:00
10:35 PM,57.2,39.2,51,30.35,10.0,NNE,4.6,-,N/A,,Clear,30,2013-06-29 04:35:00
10:55 PM,57.2,39.2,51,30.35,10.0,NNE,4.6,-,N/A,,Clear,20,2013-06-29 04:55:00
11:15 PM,53.6,37.4,54,30.35,10.0,North,3.5,-,N/A,,Clear,350,2013-06-29 05:15:00
11:35 PM,53.6,39.2,58,30.35,10.0,North,4.6,-,N/A,,Clear,10,2013-06-29 05:35:00
11:55 PM,53.6,37.4,54,30.35,10.0,North,8.1,-,N/A,,Clear,360,2013-06-29 05:55:00